DW8069 Weather Reports


Display with metric or nautical units.
time (UTC)temp
F
wind
direction
speed
MPH
gust
MPH
rain 1hr
in
rain 24hr
in
rain mn
in
humidity
%
barometer
mb
20260504173015 63 299 1.0 4.0 0.00 0.00 0.00 49 1019.5
20260504171513 64 60 1.0 5.0 0.00 0.00 0.00 45 1019.6
20260504160108 58 97 1.0 4.0 0.00 0.00 0.00 47 1020.5
20260504090105 43 345 1.0 3.0 0.00 0.00 0.00 70 1020.5
20260504081554 43 9 1.0 3.0 0.00 0.00 0.00 68 1020.9
20260504044629 42 37 0.0 1.0 0.00 0.00 0.00 62 1021.5
20260504043028 42 37 1.0 2.0 0.00 0.00 0.00 62 1021.4
20260504041526 42 37 0.0 1.0 0.00 0.00 0.00 62 1021.4
20260504040024 42 37 0.0 1.0 0.00 0.00 0.00 61 1021.6
20260504034524 41 37 0.0 1.0 0.00 0.00 0.00 65 1021.4
20260504033023 41 37 0.0 0.0 0.00 0.00 0.00 64 1021.2
20260504031527 42 37 0.0 1.0 0.00 0.00 0.00 63 1021.2
20260504030024 42 37 0.0 1.0 0.00 0.00 0.00 62 1021.0
20260504024522 42 37 0.0 1.0 0.00 0.00 0.00 60 1021.3
20260504023022 42 37 0.0 1.0 0.00 0.00 0.00 61 1021.5
20260504021520 42 24 0.0 1.0 0.00 0.00 0.00 61 1021.6
20260504020019 42 24 0.0 1.0 0.00 0.00 0.00 59 1021.7
20260504014522 43 24 0.0 1.0 0.00 0.00 0.00 58 1021.4
20260504013021 44 24 0.0 1.0 0.00 0.00 0.00 57 1021.2
20260504011517 44 24 0.0 1.0 0.00 0.00 0.00 53 1021.3
20260504010017 44 24 0.0 2.0 0.00 0.00 0.00 51 1021.1
20260504004517 45 24 0.0 1.0 0.00 0.00 0.00 51 1021.0
20260504003016 46 24 0.0 1.0 0.00 0.00 0.00 47 1020.9
20260504001516 47 24 0.0 2.0 0.00 0.00 0.00 44 1020.9
20260504000014 48 34 0.0 1.0 0.00 0.00 0.00 42 1020.9
20260503234515 48 127 0.0 2.0 0.00 0.00 0.00 41 1020.8
20260503233014 49 358 0.0 1.0 0.00 0.00 0.00 43 1020.9
20260503231519 50 171 0.0 4.0 0.00 0.00 0.00 41 1020.7
20260503230013 50 210 0.0 6.0 0.00 0.00 0.00 39 1020.8
20260503224512 51 118 0.0 3.0 0.00 0.00 0.00 40 1020.8
20260503223013 51 72 0.0 3.0 0.00 0.00 0.00 41 1020.9
20260503221512 52 116 0.0 3.0 0.00 0.00 0.00 39 1021.0
20260503220011 52 137 0.0 4.0 0.00 0.00 0.00 38 1021.0
20260503214510 52 190 0.0 5.0 0.00 0.00 0.00 39 1021.0
20260503213011 52 65 1.0 3.0 0.00 0.00 0.00 37 1021.1
20260503211509 52 122 0.0 5.0 0.00 0.00 0.00 37 1021.3
20260503210010 52 172 0.0 2.0 0.00 0.00 0.00 38 1021.3
20260503204510 52 91 0.0 6.0 0.00 0.00 0.00 41 1021.5
20260503203008 52 81 1.0 5.0 0.00 0.00 0.00 39 1021.6
20260503201508 54 87 1.0 5.0 0.00 0.00 0.00 39 1021.8
20260503200007 54 73 1.0 4.0 0.00 0.00 0.00 38 1022.0
20260503194506 54 89 0.0 5.0 0.00 0.00 0.00 37 1022.1
20260503193006 53 73 1.0 5.0 0.00 0.00 0.00 37 1022.1
20260503191505 54 137 2.0 5.0 0.00 0.00 0.00 35 1022.4
20260503190005 54 105 0.0 2.0 0.00 0.00 0.00 35 1022.4
20260503184507 53 105 1.0 5.0 0.00 0.00 0.00 32 1022.5
20260503183005 53 338 1.0 5.0 0.00 0.00 0.00 34 1022.6
20260503181501 53 328 0.0 5.0 0.00 0.00 0.00 32 1022.8
20260503174558 52 89 0.0 4.0 0.00 0.00 0.00 37 1023.1